Location: Nairn
(57.5833°N, 3.8667°W)
Time: 11:41:20
(UTC+00:00)

Vanguard 1 - Pass Details

Date: 26 November 2020
Orbit: 648 x 3834 km, 34.3° (Epoch: 17 January)

Event Time Altitude Azimuth Distance (km) Brightness Sun altitude
Rises 05:17:56 0° 188° (S) 3,879 13.1 -23.6°
Drops below altitude 10° 05:25:13 10° 142° (SE) 3,787 13.6 -22.6°
Maximum altitude 05:25:13 10° 142° (SE) 3,788 13.6 -22.6°
Sets 05:35:38 0° 101° (E) 6,002 15.6 -21.2°
